Temp
5 5 5 5 5 5 5 5 5 5 5 6 6 6 7 7 7 7 8 7 7 8 8 8 8 9 9 9 8 9 9 11 13 14 12 10 10 10 10 10 9 9 9 10 9
4 4 4 4 5 5 5 5 5 5 5 5 6 6 6 7 7 7 8 7 7 7 7 8 8 8 9 8 8 9 10 11 11 11 11 10 9 9 9 9 9 9 8 8 9
4 4 4 4 4 5 5 5 5 5 5 5 5 6 6 7 7 7 7 7 7 7 7 7 8 8 8 8 9 9 10 10 10 10 10 10 9 8 8 8 8 9 9 8 8
4 4 4 4 4 4 4 4 5 4 5 5 6 6 6 7 6 7 7 7 6 6 7 7 7 7 7 8 9 8 9 9 9 9 10 10 9 8 8 7 8 8 8 8 8
3 3 3 3 3 4 4 4 4 4 4 4 5 6 6 6 4 7 7 7 6 6 6 6 6 6 7 8 8 8 8 9 8 9 9 9 8 7 8 8 8 7 7 7 7
3 3 3 3 3 3 4 4 4 5 5 5 5 5 6 6 6 6 6 7 7 6 5 5 6 6 7 7 7 7 7 7 8 8 7 8 8 7 7 8 7 7 7 7 7
2 2 3 3 3 3 3 4 4 4 5 5 5 5 6 6 6 6 6 7 7 6 5 5 6 6 5 6 6 7 7 7 7 8 7 7 6 6 6 8 7 6 7 7 7
1 2 2 2 2 3 3 3 4 4 4 5 4 5 6 6 6 6 7 6 7 6 5 6 6 6 6 6 6 6 7 7 9 9 8 7 7 7 6 6 6 6 6 6 6
1 1 1 1 2 3 3 4 4 4 4 4 4 5 5 6 6 6 6 7 6 6 6 5 5 5 5 5 6 8 8 9 9 9 8 7 7 6 6 6 6 5 5 5 6
0 0 1 1 3 2 2 3 3 3 3 4 4 4 4 4 4 5 5 5 5 6 6 6 6 5 5 6 7 9 9 9 9 9 8 7 7 6 6 6 6 5 5 5 5
0 0 1 0 1 1 1 1 2 2 3 4 2 4 2 3 5 5 5 5 4 5 4 4 4 5 7 7 8 7 7 8 8 8 7 7 7 7 6 5 5 5 5 5 5
-2 -0 -0 -0 0 0 1 1 -0 2 1 3 4 4 4 2 5 4 3 4 3 3 4 4 5 5 6 6 6 6 6 6 7 7 8 7 6 6 7 6 5 5 5 5 4
-1 -0 -0 -1 -1 1 1 1 1 1 1 3 3 3 4 3 5 5 2 2 2 3 3 4 6 5 5 5 5 5 6 6 6 6 7 7 7 6 7 7 5 4 5 4 3
-0 -1 -0 -1 -1 -0 0 -0 1 0 0 1 3 3 4 4 4 5 4 2 2 2 3 4 4 5 5 4 4 5 5 5 5 5 6 7 7 7 8 8 5 4 5 2 -0
-0 -0 -0 -0 -0 -0 -1 0 -1 -0 0 2 1 3 3 3 1 3 3 1 1 2 2 3 3 3 3 3 3 4 4 4 3 3 4 5 5 6 7 7 6 5 2 1 -0
-1 -1 -1 -0 -1 -0 -0 -1 -1 -1 0 2 1 2 2 2 1 1 2 2 1 1 2 2 2 3 3 2 2 3 2 2 3 3 3 4 4 5 6 6 6 5 1 2 0
-1 -1 -2 -2 -1 0 -2 -2 -2 -2 2 2 1 1 1 1 1 0 1 2 1 1 2 2 2 2 2 2 2 2 2 3 3 4 4 5 6 6 6 5 5 4 3 1 2
-3 -2 -3 -2 -3 -2 -2 -3 -3 1 2 2 1 0 1 1 1 1 1 2 2 2 2 3 4 4 3 2 2 3 3 3 2 3 4 4 5 5 5 5 4 3 2 3 1
-3 -4 -4 -3 -3 -4 -4 -3 -2 -0 1 1 1 1 1 1 1 1 1 2 3 3 2 3 3 3 2 2 2 2 2 3 3 3 3 3 4 5 4 2 1 1 1 1 1
-5 -4 -4 -4 -4 -4 -5 -3 -2 -1 0 -0 1 1 1 1 0 0 0 1 1 1 1 1 2 2 2 2 1 1 2 2 2 2 2 4 4 4 1 0 -0 -0 -0 -1 -1
-6 -5 -5 -5 -5 -5 -5 -4 -3 -3 -2 -2 -0 0 1 1 1 1 0 1 0 0 -0 0 0 1 1 2 2 2 2 2 2 2 2 2 3 2 0 -1 -0 -0 0 -1 -2
-6 -6 -6 -6 -6 -5 -4 -5 -4 -3 -3 -2 -1 -1 -0 0 0 0 0 0 -0 -1 -1 -0 -0 -0 1 1 2 2 2 2 2 2 2 2 1 1 -0 -0 -2 -1 -1 -1 -1
-7 -8 -7 -7 -6 -5 -6 -5 -5 -5 -4 -3 -2 -2 -2 -1 -1 -1 -1 -1 -1 -2 -2 -2 -1 -1 0 1 1 1 1 1 1 1 1 1 1 0 -1 -1 -2 -2 -1 -1 -2
-8 -8 -8 -7 -5 -6 -6 -5 -5 -6 -5 -4 -4 -3 -3 -3 -3 -2 -2 -2 -2 -2 -3 -3 -3 -2 -2 -1 -1 -1 -0 0 0 -0 -1 -1 -0 0 0 -0 -2 -2 -1 -2 -2
-8 -8 -7 -6 -5 -7 -6 -5 -5 -5 -6 -5 -5 -4 -4 -4 -3 -3 -3 -3 -3 -3 -3 -4 -4 -3 -3 -2 -2 -2 -1 -1 -1 -0 0 0 0 0 0 -0 -2 -2 -3 -2 -3
-8 -8 -8 -7 -6 -6 -6 -6 -5 -5 -6 -4 -5 -4 -4 -4 -4 -3 -2 -3 -3 -3 -3 -4 -4 -4 -4 -3 -2 -2 -1 -1 -0 -0 -0 -0 0 0 -0 -1 -3 -3 -3 -3 -4
-9 -8 -8 -7 -7 -6 -6 -6 -6 -6 -5 -5 -5 -5 -4 -4 -4 -4 -4 -4 -5 -5 -5 -4 -4 -4 -4 -3 -2 -3 -2 -1 -1 -1 -1 -0 -0 -1 -2 -2 -3 -4 -4 -4 -4
Height
3157 3158 3158 3158 3157 3157 3156 3155 3154 3153 3152 3151 3149 3147 3146 3145 3145 3144 3144 3143 3142 3141 3142 3142 3141 3141 3142 3143 3143 3144 3147 3143 3145 3140 3136 3137 3138 3143 3142 3142 3145 3144 3143 3147 3147
3154 3155 3156 3155 3154 3154 3153 3152 3152 3152 3150 3149 3148 3146 3143 3142 3142 3140 3142 3141 3140 3140 3140 3140 3139 3140 3141 3143 3143 3144 3145 3145 3143 3142 3139 3139 3141 3141 3142 3142 3143 3143 3143 3144 3145
3150 3151 3152 3152 3151 3151 3151 3150 3149 3148 3147 3146 3145 3143 3142 3139 3139 3136 3139 3139 3139 3138 3138 3139 3139 3140 3140 3143 3143 3143 3143 3141 3142 3139 3138 3140 3140 3140 3144 3141 3138 3141 3142 3143 3144
3146 3147 3149 3148 3148 3147 3147 3147 3147 3146 3144 3143 3142 3141 3140 3138 3141 3134 3138 3137 3137 3137 3137 3138 3138 3138 3140 3142 3142 3140 3141 3138 3138 3134 3137 3137 3139 3140 3140 3137 3136 3140 3141 3142 3142
3142 3143 3144 3144 3142 3144 3144 3144 3143 3143 3141 3140 3139 3137 3138 3137 3137 3133 3135 3135 3135 3135 3135 3136 3137 3136 3137 3138 3138 3138 3137 3137 3135 3132 3134 3135 3137 3136 3136 3137 3137 3138 3138 3138 3138
3137 3138 3139 3140 3138 3139 3140 3139 3140 3140 3139 3138 3136 3135 3134 3135 3131 3131 3130 3132 3133 3133 3133 3134 3134 3134 3133 3134 3134 3134 3132 3133 3133 3132 3131 3131 3133 3132 3129 3134 3134 3134 3134 3134 3133
3130 3131 3133 3134 3134 3134 3135 3136 3137 3137 3135 3134 3132 3130 3130 3131 3129 3129 3127 3128 3129 3130 3131 3132 3132 3133 3132 3130 3130 3129 3128 3128 3128 3129 3129 3128 3129 3126 3124 3128 3129 3129 3128 3129 3129
3124 3125 3126 3128 3128 3129 3130 3130 3131 3132 3132 3130 3129 3126 3124 3125 3126 3126 3126 3124 3124 3126 3127 3129 3130 3129 3129 3129 3127 3127 3127 3124 3123 3125 3125 3124 3126 3125 3121 3124 3124 3125 3124 3125 3124
3114 3117 3119 3120 3123 3125 3124 3124 3125 3125 3125 3125 3125 3122 3121 3120 3122 3122 3123 3122 3121 3122 3124 3126 3126 3127 3128 3127 3127 3125 3121 3121 3120 3119 3121 3119 3122 3117 3120 3121 3120 3121 3120 3120 3118
3108 3110 3112 3114 3116 3118 3119 3118 3118 3118 3118 3118 3119 3121 3118 3119 3117 3119 3119 3119 3119 3119 3119 3122 3122 3122 3124 3125 3124 3120 3119 3119 3119 3119 3118 3119 3118 3117 3116 3117 3118 3116 3116 3115 3114
3101 3104 3106 3108 3109 3111 3113 3113 3116 3113 3110 3114 3113 3113 3112 3113 3114 3114 3115 3115 3116 3116 3116 3119 3121 3121 3122 3122 3121 3118 3118 3118 3116 3118 3117 3117 3116 3118 3110 3108 3113 3112 3111 3111 3110
3097 3097 3099 3101 3102 3104 3107 3109 3110 3109 3103 3105 3106 3105 3107 3107 3109 3109 3111 3113 3113 3112 3116 3118 3115 3117 3118 3117 3116 3116 3116 3115 3115 3115 3114 3109 3108 3113 3113 3102 3103 3105 3105 3106 3105
3091 3094 3093 3094 3096 3100 3100 3105 3104 3104 3098 3098 3098 3097 3101 3100 3102 3105 3107 3106 3109 3111 3110 3112 3114 3112 3112 3113 3114 3113 3114 3114 3113 3112 3108 3106 3099 3106 3104 3101 3093 3097 3098 3098 3097
3086 3089 3090 3090 3094 3093 3095 3098 3100 3100 3097 3091 3089 3090 3093 3094 3092 3097 3097 3103 3105 3104 3108 3106 3108 3109 3108 3109 3110 3109 3112 3110 3108 3108 3103 3105 3093 3098 3098 3094 3087 3088 3091 3092 3092
3076 3082 3085 3085 3087 3089 3091 3093 3097 3099 3097 3088 3082 3083 3084 3090 3089 3088 3092 3094 3096 3101 3103 3100 3103 3105 3104 3105 3107 3105 3105 3105 3104 3104 3101 3094 3103 3077 3093 3092 3085 3082 3085 3088 3085
3068 3072 3077 3079 3082 3083 3085 3091 3094 3099 3088 3083 3080 3080 3082 3083 3086 3085 3088 3090 3093 3095 3096 3096 3098 3100 3101 3101 3102 3103 3102 3101 3101 3102 3096 3090 3097 3085 3086 3085 3082 3079 3079 3081 3079
3061 3065 3067 3069 3073 3077 3082 3087 3092 3088 3083 3081 3079 3079 3081 3081 3085 3085 3086 3087 3090 3092 3092 3093 3092 3093 3095 3097 3099 3100 3100 3098 3095 3094 3086 3086 3083 3079 3079 3075 3076 3073 3074 3074 3076
3053 3057 3061 3064 3067 3073 3077 3082 3084 3077 3077 3078 3078 3078 3081 3083 3084 3086 3087 3088 3089 3089 3090 3091 3090 3091 3090 3092 3096 3095 3096 3095 3089 3086 3084 3082 3076 3075 3074 3074 3073 3073 3070 3069 3069
3049 3052 3055 3058 3063 3068 3072 3072 3068 3076 3075 3074 3076 3076 3078 3081 3083 3084 3085 3086 3086 3088 3089 3086 3086 3087 3087 3090 3093 3092 3091 3092 3088 3086 3082 3079 3075 3074 3068 3066 3067 3069 3067 3067 3066
3044 3047 3051 3054 3057 3062 3066 3064 3066 3070 3070 3070 3074 3074 3075 3078 3081 3082 3082 3082 3082 3084 3085 3085 3084 3084 3086 3086 3088 3088 3088 3088 3085 3082 3076 3073 3070 3068 3069 3067 3065 3068 3068 3068 3064
3038 3041 3043 3049 3053 3057 3056 3058 3064 3062 3067 3068 3070 3071 3072 3075 3076 3079 3080 3082 3081 3081 3082 3083 3083 3082 3082 3083 3082 3084 3081 3081 3079 3079 3075 3071 3066 3066 3063 3066 3065 3063 3064 3062 3060
3030 3035 3038 3041 3048 3049 3049 3054 3062 3061 3063 3065 3065 3067 3071 3072 3073 3075 3076 3078 3078 3078 3080 3081 3079 3077 3076 3077 3077 3077 3075 3075 3073 3071 3069 3067 3061 3066 3062 3061 3062 3059 3058 3058 3058
3025 3030 3032 3037 3039 3041 3047 3051 3057 3058 3060 3062 3063 3063 3065 3070 3072 3072 3073 3075 3075 3075 3076 3077 3075 3075 3070 3071 3069 3069 3070 3071 3068 3067 3062 3061 3055 3061 3059 3057 3057 3054 3053 3052 3052
3019 3024 3027 3029 3035 3039 3043 3047 3052 3052 3055 3059 3061 3061 3062 3065 3067 3067 3069 3070 3069 3071 3071 3073 3072 3074 3070 3067 3069 3064 3063 3064 3063 3060 3059 3055 3053 3051 3054 3051 3049 3045 3046 3047 3046
3011 3013 3018 3020 3024 3032 3040 3044 3047 3048 3050 3055 3056 3057 3059 3061 3063 3063 3065 3067 3065 3065 3067 3068 3066 3070 3063 3063 3065 3060 3059 3058 3057 3054 3053 3048 3047 3047 3046 3042 3041 3038 3039 3040 3040
3003 3009 3013 3021 3022 3028 3032 3035 3041 3045 3047 3048 3049 3053 3054 3056 3059 3060 3060 3061 3060 3060 3063 3064 3060 3063 3052 3060 3058 3051 3050 3049 3048 3046 3045 3044 3038 3043 3036 3033 3035 3032 3032 3034 3034
2999 3007 3013 3016 3019 3023 3024 3030 3035 3041 3043 3044 3047 3049 3051 3054 3052 3051 3051 3052 3052 3053 3056 3059 3058 3058 3044 3054 3049 3040 3043 3042 3040 3039 3038 3035 3034 3034 3029 3025 3024 3024 3024 3028 3027
Wind_Speed
19 19 18 19 18 18 17 18 18 17 16 18 18 17 18 18 18 19 17 14 13 13 12 9 7 8 8 8 7 6 9 14 13 14 10 8 13 18 19 21 25 24 24 15 15
22 22 20 20 20 21 20 19 19 20 20 22 22 21 20 20 20 19 16 16 14 13 12 10 8 6 3 7 7 7 10 11 9 6 1 5 2 9 18 23 19 20 21 19 16
25 25 23 22 22 23 23 21 19 20 22 22 23 21 22 20 17 21 16 15 11 12 10 10 9 7 4 5 6 8 14 14 7 10 4 3 7 7 6 9 18 21 20 20 19
28 27 25 24 25 25 24 23 23 22 23 22 22 21 21 17 4 21 19 15 13 12 12 10 9 5 6 7 7 14 9 12 8 16 17 4 13 15 20 16 27 16 15 19 21
30 29 30 28 26 27 25 26 25 25 26 27 27 24 17 14 9 14 17 18 15 11 9 10 7 8 6 7 10 15 13 13 10 19 17 15 13 15 22 25 22 20 20 21 23
32 32 32 31 28 28 26 26 26 28 27 28 28 23 19 16 18 15 12 15 15 12 9 10 12 13 12 12 12 16 11 11 11 13 13 17 15 23 28 24 26 28 27 26 27
34 33 32 32 29 28 28 27 29 28 27 27 27 25 21 19 18 16 12 13 14 14 14 13 11 12 10 12 16 20 20 19 18 17 16 15 16 27 24 24 24 26 28 28 27
36 34 34 28 27 29 31 28 29 29 29 30 29 27 25 21 18 19 17 13 13 13 14 17 16 15 16 15 18 19 17 20 16 19 19 19 17 17 27 25 24 22 26 29 30
29 31 28 22 28 33 34 34 35 37 35 32 30 28 25 25 17 10 11 11 13 11 13 15 17 17 13 16 15 15 20 19 17 14 18 21 14 19 20 19 24 23 26 26 28
35 37 30 32 28 32 36 36 34 34 31 28 26 24 17 14 14 7 13 11 11 12 13 13 14 12 13 12 20 19 17 16 14 12 16 17 17 21 24 26 26 28 27 26 27
35 31 34 31 27 29 28 27 26 22 28 25 10 17 8 19 21 19 18 16 17 16 15 10 11 15 16 17 24 18 15 16 15 14 12 17 20 18 26 26 25 29 29 25 25
28 33 35 41 24 25 25 23 20 28 28 25 25 25 24 22 24 18 17 16 13 15 12 15 21 16 18 18 14 16 18 22 24 23 25 25 24 21 24 32 30 31 31 28 26
25 21 19 23 22 22 22 22 24 22 27 27 27 27 23 24 25 21 17 17 15 16 15 20 18 8 13 14 17 20 21 22 26 25 28 27 30 26 27 33 34 29 32 28 27
27 24 20 22 22 22 21 19 19 16 17 20 24 25 26 24 26 21 26 19 21 19 18 21 19 25 22 20 20 26 21 25 26 22 29 25 29 31 29 29 32 32 29 26 24
28 29 28 22 24 19 21 19 13 10 6 3 15 20 18 15 12 13 17 21 21 20 15 16 8 16 19 20 19 24 18 15 16 19 23 32 23 45 27 31 31 36 27 24 29
34 32 32 30 27 27 21 14 11 6 9 9 10 12 14 17 9 12 10 14 12 17 21 22 18 18 16 15 14 16 15 18 19 20 21 33 24 37 34 33 23 28 28 30 31
34 33 31 31 32 27 19 14 11 12 4 11 10 12 13 13 11 9 8 10 9 7 12 15 21 19 19 19 15 15 12 12 8 12 13 25 26 28 27 19 17 20 28 28 25
33 35 33 34 32 25 24 20 13 13 26 10 8 12 15 12 11 11 10 11 12 13 14 15 16 14 14 16 14 14 15 17 14 11 14 31 21 30 22 22 20 12 26 29 32
34 33 33 34 29 25 25 30 21 16 12 16 10 14 16 15 8 11 13 15 12 13 12 7 10 8 10 8 9 9 18 19 25 27 21 26 32 29 23 15 12 20 27 27 28
32 32 32 32 29 26 29 33 27 19 17 13 17 15 17 17 12 8 8 6 11 14 11 10 16 15 14 11 14 17 17 20 21 14 17 20 27 16 7 9 15 11 14 21 24
29 32 33 30 26 27 38 30 15 16 20 11 16 11 14 16 17 15 9 8 8 5 7 10 14 17 17 20 20 19 24 25 26 25 13 14 18 13 8 7 17 24 19 21 28
28 28 28 24 26 33 40 30 14 14 21 20 19 13 14 13 13 17 16 14 10 10 11 12 13 16 19 18 19 21 25 26 26 25 29 26 26 25 20 25 14 29 26 25 16
28 28 27 24 34 35 27 31 19 17 15 15 17 16 11 13 11 15 17 14 12 9 7 6 8 15 16 16 16 20 21 25 27 28 31 19 30 19 22 26 19 28 31 23 24
33 31 28 27 33 25 21 20 26 17 17 16 13 14 17 18 17 12 11 10 17 17 17 18 18 17 22 20 21 31 28 26 27 22 29 32 34 38 33 32 28 30 33 23 26
37 33 33 30 41 28 22 18 24 21 21 14 17 19 17 15 16 19 19 18 17 16 18 18 23 21 28 28 27 31 33 32 34 38 35 37 36 35 32 27 35 33 29 26 27
41 34 29 19 22 37 26 29 23 23 19 18 22 13 17 20 17 11 8 11 18 14 15 16 27 21 35 24 28 35 32 32 32 33 36 37 43 32 32 30 25 33 26 24 24
42 34 14 26 16 24 34 29 24 19 18 20 11 17 12 12 17 19 23 23 17 13 17 20 24 23 40 23 24 28 27 28 32 31 31 31 31 25 25 32 26 29 17 18 18
Wind_Direction
260 265 272 279 286 290 291 293 292 291 302 301 306 305 303 310 312 313 300 292 296 291 286 282 283 285 278 265 291 257 268 266 293 292 173 160 178 192 207 217 231 232 246 262 237
259 264 269 277 283 286 286 286 291 297 300 300 305 307 305 307 316 311 304 299 299 295 286 279 271 271 281 304 294 267 262 298 327 347 102 145 187 264 235 228 239 244 243 250 246
259 263 268 273 279 281 282 279 289 294 297 298 303 311 308 303 312 297 303 305 311 315 299 279 277 279 297 270 265 263 256 292 306 259 141 240 193 192 214 251 247 238 243 247 251
260 263 268 269 274 277 279 281 286 292 294 301 307 304 309 305 318 286 299 293 301 307 309 294 269 290 284 279 267 273 283 276 276 266 247 223 237 239 219 215 247 264 253 252 255
262 264 267 269 270 272 274 282 282 286 295 303 306 306 302 305 294 304 305 301 297 300 308 292 279 276 265 264 263 287 275 273 269 263 262 233 217 230 244 236 244 252 261 259 259
262 265 267 269 266 266 269 277 284 289 295 300 301 302 300 305 281 295 297 297 301 291 286 280 262 269 271 264 266 267 255 257 266 265 260 246 229 235 256 260 255 261 261 258 258
261 262 264 268 266 264 272 275 283 287 293 298 297 293 290 296 292 290 288 289 293 286 275 276 284 282 249 277 257 264 273 273 264 247 243 258 240 253 247 263 262 261 260 261 261
263 262 262 260 264 270 269 277 283 285 289 294 297 290 286 288 291 289 285 282 283 287 269 273 279 277 278 274 276 277 274 268 267 249 234 236 259 289 241 260 267 266 266 267 265
241 246 243 267 274 275 280 282 281 284 287 286 287 286 289 287 290 281 283 285 282 279 277 281 279 280 273 284 289 265 255 267 272 238 218 227 258 249 246 246 263 269 271 272 269
259 267 256 274 275 275 279 283 282 280 281 279 273 279 277 259 266 266 284 280 276 281 286 291 288 277 269 257 258 267 292 267 267 232 215 246 257 265 263 263 269 279 278 277 275
248 251 250 260 267 269 274 277 279 281 268 268 254 238 261 270 269 280 277 271 269 270 265 262 255 256 264 263 262 266 276 281 272 291 258 258 264 260 263 254 265 275 277 275 272
286 274 272 262 259 263 266 274 270 265 268 268 258 257 255 255 271 271 265 267 260 254 257 258 244 265 270 267 269 264 274 278 275 271 269 269 262 265 266 263 264 276 273 270 263
277 279 281 256 258 264 266 269 262 276 276 267 266 263 258 259 267 262 239 262 246 248 249 248 255 247 273 268 268 264 268 277 278 282 276 280 268 271 262 260 253 249 268 266 256
260 256 258 256 262 265 262 256 262 266 283 272 263 255 254 253 259 255 238 230 246 249 252 259 250 256 265 264 258 267 273 281 288 294 288 267 286 279 279 270 242 254 254 240 232
252 254 254 251 261 255 252 247 245 252 282 196 207 247 235 223 222 252 238 220 232 232 241 235 256 262 265 263 258 269 273 277 290 283 290 272 282 280 279 282 258 258 231 225 233
240 242 245 244 241 250 246 237 224 209 245 235 234 225 218 205 219 240 228 209 224 232 235 249 251 251 257 264 264 269 281 284 276 270 261 275 271 272 279 276 291 247 221 227 236
239 238 232 232 232 238 231 214 192 220 236 237 235 205 199 207 200 196 205 195 195 193 243 258 254 255 251 256 262 256 265 275 272 255 255 278 270 266 283 265 276 232 239 229 249
234 230 227 232 229 229 215 197 218 237 237 263 209 194 193 202 210 212 215 228 240 243 268 274 275 266 232 235 250 260 252 244 276 285 296 292 288 292 297 294 289 231 218 251 251
234 233 228 227 227 223 209 192 217 246 256 219 200 191 197 204 201 219 233 242 244 242 234 287 260 232 238 223 250 266 249 266 273 275 279 275 280 281 272 268 241 224 217 238 256
238 235 233 231 223 217 203 214 223 238 225 193 213 204 206 205 207 227 236 261 246 238 241 254 270 260 265 262 254 248 270 283 273 276 267 272 283 300 355 295 294 320 292 275 284
232 233 232 232 222 208 212 214 205 242 221 203 208 210 222 225 229 233 235 247 233 229 234 245 258 264 260 252 264 269 264 260 257 255 265 273 273 290 303 299 292 304 303 280 269
220 222 228 218 202 213 220 215 224 238 219 214 203 206 217 228 231 234 247 246 248 222 249 250 274 268 257 261 262 268 267 269 271 280 282 274 268 287 280 278 278 296 296 286 284
206 220 219 209 205 213 216 217 223 228 224 229 219 206 222 224 242 246 243 234 250 239 239 241 255 270 277 268 256 247 267 266 266 271 264 277 276 281 297 297 280 279 289 289 281
200 207 216 211 214 220 215 215 218 226 223 227 238 228 240 233 233 243 235 235 243 234 246 250 255 255 265 268 293 290 279 282 284 276 275 272 276 285 293 282 273 274 287 285 290
201 215 221 214 218 197 211 221 222 226 236 211 232 228 229 234 235 242 248 251 255 263 260 260 258 260 266 271 274 273 274 274 272 277 280 287 286 287 292 297 286 277 276 273 291
202 209 218 226 226 210 197 207 222 226 225 232 229 235 233 234 235 246 255 242 243 231 239 247 262 269 273 273 275 274 270 269 266 266 268 273 277 284 292 286 281 273 266 271 285
203 210 204 207 216 211 218 225 232 232 233 232 238 228 227 234 232 233 239 242 241 242 246 250 260 261 268 281 287 275 269 272 272 271 271 278 282 294 291 296 303 280 266 267 282